Time,TemperatureF,DewpointF,PressureIn,WindDirection,WindDirectionDegrees,WindSpeedMPH,WindSpeedGustMPH,Humidity,HourlyPrecipIn,Conditions,Clouds,dailyrainin,SoftwareType,DateUTC
2013-02-28 00:03:00,28.4,24.5,30.09,North,350,0.0,0.0,85,0.00,,,0.00,Wunderground v.1.15,2013-02-28 06:03:00,
2013-02-28 00:08:00,28.4,24.5,30.09,North,350,0.0,0.0,85,0.00,,,0.00,Wunderground v.1.15,2013-02-28 06:08:00,
2013-02-28 00:14:00,28.4,24.5,30.09,North,350,1.0,1.0,85,0.00,,,0.00,Wunderground v.1.15,2013-02-28 06:14:00,
2013-02-28 00:20:00,28.4,24.5,30.09,North,350,0.0,0.0,85,0.00,,,0.00,Wunderground v.1.15,2013-02-28 06:20:00,
2013-02-28 00:26:00,28.5,24.3,30.09,NW,317,2.0,5.0,84,0.00,,,0.00,Wunderground v.1.15,2013-02-28 06:26:00,
2013-02-28 00:32:00,28.6,24.4,30.10,NNW,347,1.0,1.0,84,0.00,,,0.00,Wunderground v.1.15,2013-02-28 06:32:00,
2013-02-28 00:38:00,28.7,24.5,30.10,NNW,347,0.0,1.0,84,0.00,,,0.00,Wunderground v.1.15,2013-02-28 06:38:00,
2013-02-28 00:43:00,28.8,24.6,30.10,NNW,338,0.0,4.0,84,0.00,,,0.00,Wunderground v.1.15,2013-02-28 06:43:00,
2013-02-28 00:49:00,28.9,24.4,30.10,NNW,339,2.0,4.0,83,0.00,,,0.00,Wunderground v.1.15,2013-02-28 06:49:00,
2013-02-28 00:55:00,28.9,24.4,30.10,NNW,337,4.0,4.0,83,0.00,,,0.00,Wunderground v.1.15,2013-02-28 06:55:00,
2013-02-28 01:00:00,29.1,24.6,30.11,NNW,344,0.0,2.0,83,0.00,,,0.00,Wunderground v.1.15,2013-02-28 07:00:00,
2013-02-28 01:06:00,29.2,24.7,30.11,NNW,327,4.0,4.0,83,0.00,,,0.00,Wunderground v.1.15,2013-02-28 07:06:00,
2013-02-28 01:11:00,29.3,24.5,30.11,NNW,328,2.0,2.0,82,0.00,,,0.00,Wunderground v.1.15,2013-02-28 07:11:00,
2013-02-28 01:17:00,29.4,24.6,30.11,NNW,336,0.0,2.0,82,0.00,,,0.00,Wunderground v.1.15,2013-02-28 07:17:00,
2013-02-28 01:22:00,29.5,24.7,30.11,NNW,344,0.0,2.0,82,0.00,,,0.00,Wunderground v.1.15,2013-02-28 07:22:00,
2013-02-28 01:27:00,29.5,24.7,30.11,NNW,344,2.0,4.0,82,0.00,,,0.00,Wunderground v.1.15,2013-02-28 07:27:00,
2013-02-28 01:32:00,29.6,24.8,30.11,North,5,1.0,2.0,82,0.00,,,0.00,Wunderground v.1.15,2013-02-28 07:32:00,
2013-02-28 01:37:00,29.6,24.8,30.11,North,355,3.0,3.0,82,0.00,,,0.00,Wunderground v.1.15,2013-02-28 07:37:00,
2013-02-28 01:43:00,29.6,24.8,30.11,NNW,347,2.0,5.0,82,0.00,,,0.00,Wunderground v.1.15,2013-02-28 07:43:00,
2013-02-28 01:49:00,29.8,24.7,30.11,NNW,336,0.0,5.0,81,0.00,,,0.00,Wunderground v.1.15,2013-02-28 07:49:00,
2013-02-28 01:55:00,29.9,24.8,30.11,North,355,0.0,3.0,81,0.00,,,0.00,Wunderground v.1.15,2013-02-28 07:55:00,
2013-02-28 02:00:00,30.0,24.9,30.11,NNW,330,0.0,1.0,81,0.00,,,0.00,Wunderground v.1.15,2013-02-28 08:00:00,
2013-02-28 02:06:00,29.9,24.8,30.12,NNW,331,2.0,5.0,81,0.00,,,0.00,Wunderground v.1.15,2013-02-28 08:06:00,
2013-02-28 02:11:00,29.9,24.8,30.11,NNW,331,0.0,1.0,81,0.00,,,0.00,Wunderground v.1.15,2013-02-28 08:11:00,
2013-02-28 02:16:00,29.9,24.8,30.11,NNW,331,0.0,2.0,81,0.00,,,0.00,Wunderground v.1.15,2013-02-28 08:16:00,
2013-02-28 02:21:00,29.8,24.7,30.11,NNW,331,0.0,0.0,81,0.00,,,0.00,Wunderground v.1.15,2013-02-28 08:21:00,
2013-02-28 02:26:00,29.8,24.7,30.11,NNW,331,0.0,0.0,81,0.00,,,0.00,Wunderground v.1.15,2013-02-28 08:26:00,
2013-02-28 02:31:00,29.8,25.0,30.11,NNW,331,0.0,0.0,82,0.00,,,0.00,Wunderground v.1.15,2013-02-28 08:31:00,
2013-02-28 02:36:00,29.7,24.9,30.11,NNW,331,0.0,0.0,82,0.00,,,0.00,Wunderground v.1.15,2013-02-28 08:36:00,
2013-02-28 02:41:00,29.7,24.9,30.11,NNW,331,0.0,0.0,82,0.00,,,0.00,Wunderground v.1.15,2013-02-28 08:41:00,
2013-02-28 02:47:00,29.6,24.8,30.11,NNW,331,0.0,0.0,82,0.00,,,0.00,Wunderground v.1.15,2013-02-28 08:47:00,
2013-02-28 02:52:00,29.6,24.8,30.11,NNW,331,0.0,0.0,82,0.00,,,0.00,Wunderground v.1.15,2013-02-28 08:52:00,
2013-02-28 02:57:00,29.6,24.8,30.11,NNW,331,0.0,0.0,82,0.00,,,0.00,Wunderground v.1.15,2013-02-28 08:57:00,
2013-02-28 03:02:00,29.6,24.8,30.11,NNW,331,0.0,0.0,82,0.00,,,0.00,Wunderground v.1.15,2013-02-28 09:02:00,
2013-02-28 03:07:00,29.5,24.7,30.11,NNW,331,0.0,0.0,82,0.00,,,0.00,Wunderground v.1.15,2013-02-28 09:07:00,
2013-02-28 03:12:00,29.4,24.6,30.12,NNW,331,0.0,0.0,82,0.00,,,0.00,Wunderground v.1.15,2013-02-28 09:12:00,
2013-02-28 03:17:00,29.4,24.6,30.12,NNW,331,0.0,0.0,82,0.00,,,0.00,Wunderground v.1.15,2013-02-28 09:17:00,
2013-02-28 03:22:00,29.4,24.6,30.12,NNW,331,0.0,0.0,82,0.00,,,0.00,Wunderground v.1.15,2013-02-28 09:22:00,
2013-02-28 03:27:00,29.4,24.6,30.12,NNW,331,0.0,0.0,82,0.00,,,0.00,Wunderground v.1.15,2013-02-28 09:27:00,
2013-02-28 03:33:00,29.4,24.6,30.12,NNW,331,0.0,0.0,82,0.00,,,0.00,Wunderground v.1.15,2013-02-28 09:33:00,
2013-02-28 03:38:00,29.4,24.6,30.12,NNW,331,0.0,0.0,82,0.00,,,0.00,Wunderground v.1.15,2013-02-28 09:38:00,
2013-02-28 03:43:00,29.4,24.9,30.12,NNW,331,0.0,0.0,83,0.00,,,0.00,Wunderground v.1.15,2013-02-28 09:43:00,
2013-02-28 03:48:00,29.4,24.9,30.12,NNW,331,0.0,0.0,83,0.00,,,0.00,Wunderground v.1.15,2013-02-28 09:48:00,
2013-02-28 03:53:00,29.4,24.9,30.12,NNW,331,0.0,0.0,83,0.00,,,0.00,Wunderground v.1.15,2013-02-28 09:53:00,
2013-02-28 03:58:00,29.4,24.9,30.13,NNW,331,0.0,0.0,83,0.00,,,0.00,Wunderground v.1.15,2013-02-28 09:58:00,
2013-02-28 04:04:00,29.4,24.9,30.13,NNW,331,0.0,2.0,83,0.00,,,0.00,Wunderground v.1.15,2013-02-28 10:04:00,
2013-02-28 04:09:00,29.4,24.9,30.13,NNW,331,0.0,2.0,83,0.00,,,0.00,Wunderground v.1.15,2013-02-28 10:09:00,
2013-02-28 04:14:00,29.4,24.9,30.13,NNW,331,0.0,3.0,83,0.00,,,0.00,Wunderground v.1.15,2013-02-28 10:14:00,
2013-02-28 04:19:00,29.4,24.9,30.13,NNW,331,0.0,3.0,83,0.00,,,0.00,Wunderground v.1.15,2013-02-28 10:19:00,
2013-02-28 04:24:00,29.4,24.9,30.13,NNW,331,0.0,2.0,83,0.00,,,0.00,Wunderground v.1.15,2013-02-28 10:24:00,
2013-02-28 04:29:00,29.5,25.0,30.14,NNW,331,4.0,5.0,83,0.00,,,0.00,Wunderground v.1.15,2013-02-28 10:29:00,
2013-02-28 04:34:00,29.6,25.1,30.14,NNW,331,1.0,1.0,83,0.00,,,0.00,Wunderground v.1.15,2013-02-28 10:34:00,
2013-02-28 04:39:00,29.7,25.2,30.14,NNW,331,0.0,5.0,83,0.00,,,0.00,Wunderground v.1.15,2013-02-28 10:39:00,
2013-02-28 04:45:00,29.8,25.0,30.14,NNW,347,0.0,6.0,82,0.00,,,0.00,Wunderground v.1.15,2013-02-28 10:45:00,
2013-02-28 04:50:00,29.9,25.1,30.14,NNW,346,0.0,6.0,82,0.00,,,0.00,Wunderground v.1.15,2013-02-28 10:50:00,
2013-02-28 04:55:00,30.0,25.2,30.14,NNW,340,0.0,5.0,82,0.00,,,0.00,Wunderground v.1.15,2013-02-28 10:55:00,
2013-02-28 05:00:00,30.1,25.3,30.14,NNW,340,3.0,7.0,82,0.00,,,0.00,Wunderground v.1.15,2013-02-28 11:00:00,
2013-02-28 05:05:00,30.1,25.3,30.15,North,349,0.0,3.0,82,0.00,,,0.00,Wunderground v.1.15,2013-02-28 11:05:00,
2013-02-28 05:10:00,30.2,25.4,30.15,NNW,348,0.0,3.0,82,0.00,,,0.00,Wunderground v.1.15,2013-02-28 11:10:00,
2013-02-28 05:15:00,30.2,25.4,30.15,North,5,5.0,5.0,82,0.00,,,0.00,Wunderground v.1.15,2013-02-28 11:15:00,
2013-02-28 05:20:00,30.2,25.7,30.15,NNE,30,0.0,1.0,83,0.00,,,0.00,Wunderground v.1.15,2013-02-28 11:20:00,
2013-02-28 05:25:00,30.2,25.7,30.15,North,350,3.0,6.0,83,0.00,,,0.00,Wunderground v.1.15,2013-02-28 11:25:00,
2013-02-28 05:30:00,30.2,25.4,30.16,North,355,0.0,2.0,82,0.00,,,0.00,Wunderground v.1.15,2013-02-28 11:30:00,
2013-02-28 05:35:00,30.2,25.4,30.15,North,355,0.0,6.0,82,0.00,,,0.00,Wunderground v.1.15,2013-02-28 11:35:00,
2013-02-28 05:41:00,30.2,25.7,30.16,NNE,22,5.0,5.0,83,0.00,,,0.00,Wunderground v.1.15,2013-02-28 11:41:00,
2013-02-28 05:46:00,30.2,25.4,30.16,North,5,4.0,5.0,82,0.00,,,0.00,Wunderground v.1.15,2013-02-28 11:46:00,
2013-02-28 05:51:00,30.2,25.4,30.16,North,5,4.0,4.0,82,0.00,,,0.00,Wunderground v.1.15,2013-02-28 11:51:00,
2013-02-28 05:56:00,30.2,25.7,30.16,WNW,294,3.0,7.0,83,0.00,,,0.00,Wunderground v.1.15,2013-02-28 11:56:00,
2013-02-28 06:01:00,30.2,25.4,30.16,North,5,3.0,4.0,82,0.00,,,0.00,Wunderground v.1.15,2013-02-28 12:01:00,
2013-02-28 06:06:00,30.2,25.4,30.16,North,5,2.0,4.0,82,0.00,,,0.00,Wunderground v.1.15,2013-02-28 12:06:00,
2013-02-28 06:11:00,30.2,25.4,30.16,North,5,0.0,3.0,82,0.00,,,0.00,Wunderground v.1.15,2013-02-28 12:11:00,
2013-02-28 06:16:00,30.1,25.3,30.16,NNW,345,4.0,7.0,82,0.00,,,0.00,Wunderground v.1.15,2013-02-28 12:16:00,
2013-02-28 06:21:00,30.1,25.0,30.16,NNW,344,0.0,2.0,81,0.00,,,0.00,Wunderground v.1.15,2013-02-28 12:21:00,
2013-02-28 06:27:00,30.0,24.9,30.16,NNE,22,0.0,7.0,81,0.00,,,0.00,Wunderground v.1.15,2013-02-28 12:27:00,
2013-02-28 06:32:00,30.0,24.9,30.17,NNW,329,5.0,5.0,81,0.00,,,0.00,Wunderground v.1.15,2013-02-28 12:32:00,
2013-02-28 06:37:00,29.9,24.8,30.17,North,355,0.0,6.0,81,0.00,,,0.00,Wunderground v.1.15,2013-02-28 12:37:00,
2013-02-28 06:42:00,29.9,24.8,30.17,North,355,0.0,6.0,81,0.00,,,0.00,Wunderground v.1.15,2013-02-28 12:42:00,
2013-02-28 06:47:00,29.9,24.5,30.17,North,350,2.0,6.0,80,0.00,,,0.00,Wunderground v.1.15,2013-02-28 12:47:00,
2013-02-28 06:52:00,29.8,24.4,30.17,NNE,12,3.0,10.0,80,0.00,,,0.00,Wunderground v.1.15,2013-02-28 12:52:00,
2013-02-28 06:57:00,29.8,24.4,30.17,North,355,4.0,10.0,80,0.00,,,0.00,Wunderground v.1.15,2013-02-28 12:57:00,
2013-02-28 07:02:00,29.8,24.4,30.17,NNW,338,2.0,7.0,80,0.00,,,0.00,Wunderground v.1.15,2013-02-28 13:02:00,
2013-02-28 07:08:00,29.8,24.4,30.17,NNW,338,5.0,9.0,80,0.00,,,0.00,Wunderground v.1.15,2013-02-28 13:08:00,
2013-02-28 07:13:00,29.7,24.3,30.18,North,355,7.0,7.0,80,0.00,,,0.00,Wunderground v.1.15,2013-02-28 13:13:00,
2013-02-28 07:18:00,29.7,24.3,30.17,NNE,16,3.0,7.0,80,0.00,,,0.00,Wunderground v.1.15,2013-02-28 13:18:00,
2013-02-28 07:23:00,29.6,24.2,30.17,NNE,22,8.0,8.0,80,0.00,,,0.00,Wunderground v.1.15,2013-02-28 13:23:00,
2013-02-28 07:28:00,29.6,24.2,30.17,North,360,1.0,8.0,80,0.00,,,0.00,Wunderground v.1.15,2013-02-28 13:28:00,
2013-02-28 07:33:00,29.6,24.2,30.17,North,355,0.0,5.0,80,0.00,,,0.00,Wunderground v.1.15,2013-02-28 13:33:00,
2013-02-28 07:38:00,29.6,24.2,30.18,NNW,344,5.0,5.0,80,0.00,,,0.00,Wunderground v.1.15,2013-02-28 13:38:00,
2013-02-28 07:44:00,29.6,24.2,30.17,NNW,344,4.0,11.0,80,0.00,,,0.00,Wunderground v.1.15,2013-02-28 13:44:00,
2013-02-28 07:49:00,29.6,24.2,30.18,North,355,3.0,11.0,80,0.00,,,0.00,Wunderground v.1.15,2013-02-28 13:49:00,
2013-02-28 07:54:00,29.6,23.9,30.17,NNE,12,12.0,12.0,79,0.00,,,0.00,Wunderground v.1.15,2013-02-28 13:54:00,
2013-02-28 07:59:00,29.6,23.9,30.18,NNE,26,5.0,12.0,79,0.00,,,0.00,Wunderground v.1.15,2013-02-28 13:59:00,
2013-02-28 08:04:00,29.6,23.9,30.18,North,349,5.0,10.0,79,0.00,,,0.00,Wunderground v.1.15,2013-02-28 14:04:00,
2013-02-28 08:09:00,29.7,24.0,30.18,NNE,12,5.0,10.0,79,0.00,,,0.00,Wunderground v.1.15,2013-02-28 14:09:00,
2013-02-28 08:14:00,29.7,24.0,30.18,North,360,5.0,9.0,79,0.00,,,0.00,Wunderground v.1.15,2013-02-28 14:14:00,
2013-02-28 08:19:00,29.7,24.0,30.18,NE,42,11.0,11.0,79,0.00,,,0.00,Wunderground v.1.15,2013-02-28 14:19:00,
2013-02-28 08:24:00,29.7,24.0,30.18,NNE,32,4.0,6.0,79,0.00,,,0.00,Wunderground v.1.15,2013-02-28 14:24:00,
2013-02-28 08:30:00,29.8,23.8,30.18,North,355,3.0,6.0,78,0.00,,,0.00,Wunderground v.1.15,2013-02-28 14:30:00,
2013-02-28 08:35:00,29.8,24.1,30.19,NE,37,6.0,12.0,79,0.00,,,0.00,Wunderground v.1.15,2013-02-28 14:35:00,
2013-02-28 08:40:00,29.8,23.8,30.18,North,5,3.0,12.0,78,0.00,,,0.00,Wunderground v.1.15,2013-02-28 14:40:00,
2013-02-28 08:45:00,29.8,23.8,30.19,NE,42,3.0,12.0,78,0.00,,,0.00,Wunderground v.1.15,2013-02-28 14:45:00,
2013-02-28 08:50:00,29.8,23.8,30.19,NE,53,4.0,4.0,78,0.00,,,0.00,Wunderground v.1.15,2013-02-28 14:50:00,
2013-02-28 08:55:00,29.8,23.8,30.19,North,350,0.0,7.0,78,0.00,,,0.00,Wunderground v.1.15,2013-02-28 14:55:00,
2013-02-28 09:00:00,29.9,23.9,30.19,NNE,24,0.0,3.0,78,0.00,,,0.00,Wunderground v.1.15,2013-02-28 15:00:00,
2013-02-28 09:05:00,29.9,23.9,30.19,ENE,77,0.0,9.0,78,0.00,,,0.00,Wunderground v.1.15,2013-02-28 15:05:00,
2013-02-28 09:10:00,30.0,24.0,30.19,North,355,5.0,5.0,78,0.00,,,0.00,Wunderground v.1.15,2013-02-28 15:10:00,
2013-02-28 09:15:00,30.0,23.7,30.20,NNW,343,5.0,10.0,77,0.00,,,0.00,Wunderground v.1.15,2013-02-28 15:15:00,
2013-02-28 09:21:00,29.9,22.9,30.20,NNE,30,3.0,5.0,75,0.00,,,0.00,Wunderground v.1.15,2013-02-28 15:21:00,
2013-02-28 09:26:00,29.9,23.3,30.20,NE,41,3.0,11.0,76,0.00,,,0.00,Wunderground v.1.15,2013-02-28 15:26:00,
2013-02-28 09:31:00,29.9,22.9,30.20,NNE,27,5.0,8.0,75,0.00,,,0.00,Wunderground v.1.15,2013-02-28 15:31:00,
2013-02-28 09:36:00,29.9,23.3,30.20,NNE,32,5.0,8.0,76,0.00,,,0.00,Wunderground v.1.15,2013-02-28 15:36:00,
2013-02-28 09:42:00,29.9,22.9,30.20,ENE,66,4.0,6.0,75,0.00,,,0.00,Wunderground v.1.15,2013-02-28 15:42:00,
2013-02-28 09:47:00,29.9,22.9,30.20,NNE,32,3.0,11.0,75,0.00,,,0.00,Wunderground v.1.15,2013-02-28 15:47:00,
2013-02-28 09:52:00,29.9,22.9,30.21,North,360,2.0,6.0,75,0.00,,,0.00,Wunderground v.1.15,2013-02-28 15:52:00,
2013-02-28 09:57:00,29.9,22.6,30.21,NE,45,6.0,11.0,74,0.00,,,0.00,Wunderground v.1.15,2013-02-28 15:57:00,
2013-02-28 10:02:00,30.0,22.7,30.21,NNE,18,12.0,12.0,74,0.00,,,0.00,Wunderground v.1.15,2013-02-28 16:02:00,
2013-02-28 10:07:00,30.1,22.5,30.21,NE,40,2.0,12.0,73,0.00,,,0.00,Wunderground v.1.15,2013-02-28 16:07:00,
2013-02-28 10:13:00,30.0,22.7,30.21,East,96,8.0,9.0,74,0.00,,,0.00,Wunderground v.1.15,2013-02-28 16:13:00,
2013-02-28 10:18:00,30.2,22.6,30.21,NE,44,0.0,9.0,73,0.00,,,0.00,Wunderground v.1.15,2013-02-28 16:18:00,
2013-02-28 10:23:00,30.3,22.7,30.21,NE,53,2.0,8.0,73,0.00,,,0.00,Wunderground v.1.15,2013-02-28 16:23:00,
2013-02-28 10:28:00,30.4,22.4,30.21,East,85,2.0,8.0,72,0.00,,,0.00,Wunderground v.1.15,2013-02-28 16:28:00,
2013-02-28 10:33:00,30.4,22.8,30.21,NE,34,8.0,9.0,73,0.00,,,0.00,Wunderground v.1.15,2013-02-28 16:33:00,
2013-02-28 10:38:00,30.5,22.5,30.22,NE,49,5.0,10.0,72,0.00,,,0.00,Wunderground v.1.15,2013-02-28 16:38:00,
2013-02-28 10:43:00,30.5,22.9,30.22,NE,41,4.0,9.0,73,0.00,,,0.00,Wunderground v.1.15,2013-02-28 16:43:00,
2013-02-28 10:48:00,30.6,23.3,30.22,NNE,14,0.0,10.0,74,0.00,,,0.00,Wunderground v.1.15,2013-02-28 16:48:00,
2013-02-28 10:53:00,30.8,23.5,30.22,NNE,19,3.0,6.0,74,0.00,,,0.00,Wunderground v.1.15,2013-02-28 16:53:00,
2013-02-28 10:59:00,31.0,23.7,30.22,NNE,32,3.0,7.0,74,0.00,,,0.00,Wunderground v.1.15,2013-02-28 16:59:00,
2013-02-28 11:04:00,31.0,23.4,30.21,NNE,26,0.0,6.0,73,0.00,,,0.00,Wunderground v.1.15,2013-02-28 17:04:00,
2013-02-28 11:09:00,31.1,23.8,30.22,North,355,0.0,6.0,74,0.00,,,0.00,Wunderground v.1.15,2013-02-28 17:09:00,
2013-02-28 11:14:00,31.1,23.8,30.22,NNE,15,0.0,8.0,74,0.00,,,0.00,Wunderground v.1.15,2013-02-28 17:14:00,
2013-02-28 11:19:00,31.2,23.9,30.22,NE,54,3.0,8.0,74,0.00,,,0.00,Wunderground v.1.15,2013-02-28 17:19:00,
2013-02-28 11:24:00,31.4,23.7,30.22,NNE,24,2.0,9.0,73,0.00,,,0.00,Wunderground v.1.15,2013-02-28 17:24:00,
2013-02-28 11:29:00,31.5,23.8,30.22,NE,47,0.0,9.0,73,0.00,,,0.00,Wunderground v.1.15,2013-02-28 17:29:00,
2013-02-28 11:35:00,31.7,24.0,30.22,NNE,32,5.0,6.0,73,0.00,,,0.00,Wunderground v.1.15,2013-02-28 17:35:00,
2013-02-28 11:40:00,31.7,24.0,30.22,NNE,13,9.0,9.0,73,0.00,,,0.00,Wunderground v.1.15,2013-02-28 17:40:00,
2013-02-28 11:45:00,31.6,23.9,30.22,NE,34,7.0,10.0,73,0.00,,,0.00,Wunderground v.1.15,2013-02-28 17:45:00,
2013-02-28 11:50:00,31.5,24.2,30.22,North,11,7.0,10.0,74,0.00,,,0.00,Wunderground v.1.15,2013-02-28 17:50:00,
2013-02-28 11:55:00,31.5,24.2,30.22,North,350,0.0,8.0,74,0.00,,,0.00,Wunderground v.1.15,2013-02-28 17:55:00,
2013-02-28 12:00:00,31.6,23.9,30.23,NNW,348,3.0,3.0,73,0.00,,,0.00,Wunderground v.1.15,2013-02-28 18:00:00,
2013-02-28 12:05:00,31.5,23.8,30.23,NNE,28,5.0,7.0,73,0.00,,,0.00,Wunderground v.1.15,2013-02-28 18:05:00,
2013-02-28 12:11:00,31.4,24.1,30.23,NE,50,6.0,6.0,74,0.00,,,0.00,Wunderground v.1.15,2013-02-28 18:11:00,
2013-02-28 12:16:00,31.5,23.8,30.22,North,5,3.0,7.0,73,0.00,,,0.00,Wunderground v.1.15,2013-02-28 18:16:00,
2013-02-28 12:21:00,31.5,23.8,30.22,North,351,7.0,8.0,73,0.00,,,0.00,Wunderground v.1.15,2013-02-28 18:21:00,
2013-02-28 12:26:00,31.6,23.9,30.22,NE,55,3.0,9.0,73,0.00,,,0.00,Wunderground v.1.15,2013-02-28 18:26:00,
2013-02-28 12:31:00,31.5,23.2,30.22,ENE,67,2.0,6.0,71,0.00,,,0.00,Wunderground v.1.15,2013-02-28 18:31:00,
2013-02-28 12:36:00,31.4,23.7,30.22,ENE,65,4.0,10.0,73,0.00,,,0.00,Wunderground v.1.15,2013-02-28 18:36:00,
2013-02-28 12:42:00,31.4,23.7,30.22,NNW,331,0.0,5.0,73,0.00,,,0.00,Wunderground v.1.15,2013-02-28 18:42:00,
2013-02-28 12:47:00,31.5,23.5,30.22,NE,55,7.0,8.0,72,0.00,,,0.00,Wunderground v.1.15,2013-02-28 18:47:00,
2013-02-28 12:52:00,31.5,23.5,30.22,North,5,2.0,7.0,72,0.00,,,0.00,Wunderground v.1.15,2013-02-28 18:52:00,
2013-02-28 12:57:00,31.5,23.5,30.22,NE,49,4.0,10.0,72,0.00,,,0.00,Wunderground v.1.15,2013-02-28 18:57:00,
2013-02-28 13:02:00,31.5,23.5,30.21,ENE,69,4.0,9.0,72,0.00,,,0.00,Wunderground v.1.15,2013-02-28 19:02:00,
2013-02-28 13:07:00,31.4,23.4,30.22,NE,49,4.0,9.0,72,0.00,,,0.00,Wunderground v.1.15,2013-02-28 19:07:00,
2013-02-28 13:13:00,31.4,23.4,30.21,NNE,22,6.0,6.0,72,0.00,,,0.00,Wunderground v.1.15,2013-02-28 19:13:00,
2013-02-28 13:18:00,31.4,23.7,30.22,North,9,2.0,8.0,73,0.00,,,0.00,Wunderground v.1.15,2013-02-28 19:18:00,
2013-02-28 13:23:00,31.5,23.5,30.22,ENE,61,3.0,8.0,72,0.00,,,0.00,Wunderground v.1.15,2013-02-28 19:23:00,
2013-02-28 13:28:00,31.5,23.5,30.22,NNE,28,7.0,9.0,72,0.00,,,0.00,Wunderground v.1.15,2013-02-28 19:28:00,
2013-02-28 13:33:00,31.4,23.4,30.22,ENE,59,3.0,10.0,72,0.00,,,0.00,Wunderground v.1.15,2013-02-28 19:33:00,
2013-02-28 13:38:00,31.4,23.4,30.22,NNE,23,4.0,12.0,72,0.00,,,0.00,Wunderground v.1.15,2013-02-28 19:38:00,
2013-02-28 13:43:00,31.4,23.4,30.22,NNE,28,4.0,6.0,72,0.00,,,0.00,Wunderground v.1.15,2013-02-28 19:43:00,
2013-02-28 13:48:00,31.4,22.7,30.22,ENE,57,0.0,8.0,70,0.00,,,0.00,Wunderground v.1.15,2013-02-28 19:48:00,
2013-02-28 13:54:00,31.5,23.2,30.22,ENE,61,2.0,8.0,71,0.00,,,0.00,Wunderground v.1.15,2013-02-28 19:54:00,
2013-02-28 13:59:00,31.6,23.3,30.22,NE,36,1.0,8.0,71,0.00,,,0.00,Wunderground v.1.15,2013-02-28 19:59:00,
2013-02-28 14:04:00,31.6,22.9,30.22,NE,43,2.0,7.0,70,0.00,,,0.00,Wunderground v.1.15,2013-02-28 20:04:00,
2013-02-28 14:09:00,31.5,23.2,30.22,NE,52,0.0,7.0,71,0.00,,,0.00,Wunderground v.1.15,2013-02-28 20:09:00,
2013-02-28 14:14:00,31.5,23.2,30.22,ESE,105,0.0,5.0,71,0.00,,,0.00,Wunderground v.1.15,2013-02-28 20:14:00,
2013-02-28 14:19:00,31.6,23.3,30.22,NNE,17,3.0,7.0,71,0.00,,,0.00,Wunderground v.1.15,2013-02-28 20:19:00,
2013-02-28 14:24:00,31.5,23.2,30.22,NE,45,0.0,10.0,71,0.00,,,0.00,Wunderground v.1.15,2013-02-28 20:24:00,
2013-02-28 14:29:00,31.4,23.4,30.22,NE,44,4.0,10.0,72,0.00,,,0.00,Wunderground v.1.15,2013-02-28 20:29:00,
2013-02-28 14:34:00,31.3,23.3,30.22,ENE,59,4.0,8.0,72,0.00,,,0.00,Wunderground v.1.15,2013-02-28 20:34:00,
2013-02-28 14:40:00,31.3,23.6,30.22,NE,36,6.0,8.0,73,0.00,,,0.00,Wunderground v.1.15,2013-02-28 20:40:00,
2013-02-28 14:45:00,31.4,23.7,30.22,ENE,68,5.0,7.0,73,0.00,,,0.00,Wunderground v.1.15,2013-02-28 20:45:00,
2013-02-28 14:50:00,31.2,23.5,30.22,NE,51,6.0,10.0,73,0.00,,,0.00,Wunderground v.1.15,2013-02-28 20:50:00,
2013-02-28 14:55:00,31.0,23.4,30.22,NE,42,4.0,10.0,73,0.00,,,0.00,Wunderground v.1.15,2013-02-28 20:55:00,
2013-02-28 15:01:00,30.9,23.6,30.22,ENE,59,5.0,11.0,74,0.00,,,0.00,Wunderground v.1.15,2013-02-28 21:01:00,
2013-02-28 15:06:00,30.8,23.5,30.23,North,9,0.0,11.0,74,0.00,,,0.00,Wunderground v.1.15,2013-02-28 21:06:00,
2013-02-28 15:11:00,30.9,23.6,30.23,North,355,1.0,6.0,74,0.00,,,0.00,Wunderground v.1.15,2013-02-28 21:11:00,
2013-02-28 15:16:00,30.9,23.6,30.23,NNE,25,0.0,6.0,74,0.00,,,0.00,Wunderground v.1.15,2013-02-28 21:16:00,
2013-02-28 15:21:00,30.9,23.3,30.23,ENE,65,2.0,4.0,73,0.00,,,0.00,Wunderground v.1.15,2013-02-28 21:21:00,
2013-02-28 15:26:00,30.7,22.7,30.23,NE,56,4.0,10.0,72,0.00,,,0.00,Wunderground v.1.15,2013-02-28 21:26:00,
2013-02-28 15:31:00,30.6,23.0,30.23,NNE,28,3.0,5.0,73,0.00,,,0.00,Wunderground v.1.15,2013-02-28 21:31:00,
2013-02-28 15:36:00,30.6,23.0,30.23,ENE,58,2.0,9.0,73,0.00,,,0.00,Wunderground v.1.15,2013-02-28 21:36:00,
2013-02-28 15:41:00,30.7,23.1,30.23,ENE,63,1.0,8.0,73,0.00,,,0.00,Wunderground v.1.15,2013-02-28 21:41:00,
2013-02-28 15:46:00,30.7,23.1,30.23,ENE,57,6.0,8.0,73,0.00,,,0.00,Wunderground v.1.15,2013-02-28 21:46:00,
2013-02-28 15:51:00,30.5,22.9,30.23,NE,49,3.0,5.0,73,0.00,,,0.00,Wunderground v.1.15,2013-02-28 21:51:00,
2013-02-28 15:56:00,30.4,22.8,30.23,East,88,4.0,7.0,73,0.00,,,0.00,Wunderground v.1.15,2013-02-28 21:56:00,
2013-02-28 16:02:00,30.2,22.6,30.23,NE,52,6.0,8.0,73,0.00,,,0.00,Wunderground v.1.15,2013-02-28 22:02:00,
2013-02-28 16:07:00,30.2,22.6,30.24,North,11,7.0,8.0,73,0.00,,,0.00,Wunderground v.1.15,2013-02-28 22:07:00,
2013-02-28 16:12:00,30.2,22.3,30.23,NE,38,2.0,7.0,72,0.00,,,0.00,Wunderground v.1.15,2013-02-28 22:12:00,
2013-02-28 16:17:00,30.1,21.8,30.23,North,5,5.0,7.0,71,0.00,,,0.00,Wunderground v.1.15,2013-02-28 22:17:00,
2013-02-28 16:22:00,30.2,21.9,30.24,NE,40,3.0,9.0,71,0.00,,,0.00,Wunderground v.1.15,2013-02-28 22:22:00,
2013-02-28 16:27:00,30.2,21.9,30.24,ENE,67,5.0,9.0,71,0.00,,,0.00,Wunderground v.1.15,2013-02-28 22:27:00,
2013-02-28 16:32:00,30.1,21.5,30.24,NE,39,0.0,6.0,70,0.00,,,0.00,Wunderground v.1.15,2013-02-28 22:32:00,
2013-02-28 16:38:00,30.1,21.5,30.24,NNE,32,8.0,9.0,70,0.00,,,0.00,Wunderground v.1.15,2013-02-28 22:38:00,
2013-02-28 16:43:00,30.1,21.8,30.24,ENE,61,8.0,8.0,71,0.00,,,0.00,Wunderground v.1.15,2013-02-28 22:43:00,
2013-02-28 16:48:00,30.1,21.8,30.24,NNE,23,0.0,8.0,71,0.00,,,0.00,Wunderground v.1.15,2013-02-28 22:48:00,
2013-02-28 16:53:00,30.1,21.5,30.24,NE,52,5.0,6.0,70,0.00,,,0.00,Wunderground v.1.15,2013-02-28 22:53:00,
2013-02-28 16:58:00,30.0,21.4,30.24,NE,42,3.0,8.0,70,0.00,,,0.00,Wunderground v.1.15,2013-02-28 22:58:00,
2013-02-28 17:03:00,29.9,21.3,30.24,North,5,3.0,6.0,70,0.00,,,0.00,Wunderground v.1.15,2013-02-28 23:03:00,
2013-02-28 17:09:00,29.8,21.2,30.24,ENE,61,1.0,6.0,70,0.00,,,0.00,Wunderground v.1.15,2013-02-28 23:09:00,
2013-02-28 17:14:00,29.8,21.2,30.24,ENE,57,2.0,6.0,70,0.00,,,0.00,Wunderground v.1.15,2013-02-28 23:14:00,
2013-02-28 17:19:00,29.7,21.1,30.24,North,10,5.0,7.0,70,0.00,,,0.00,Wunderground v.1.15,2013-02-28 23:19:00,
2013-02-28 17:24:00,29.7,21.1,30.25,NE,40,2.0,8.0,70,0.00,,,0.00,Wunderground v.1.15,2013-02-28 23:24:00,
2013-02-28 17:29:00,29.6,21.3,30.25,NE,53,2.0,8.0,71,0.00,,,0.00,Wunderground v.1.15,2013-02-28 23:29:00,
2013-02-28 17:34:00,29.6,21.0,30.25,NE,44,0.0,7.0,70,0.00,,,0.00,Wunderground v.1.15,2013-02-28 23:34:00,
2013-02-28 17:39:00,29.5,20.9,30.25,NE,34,0.0,7.0,70,0.00,,,0.00,Wunderground v.1.15,2013-02-28 23:39:00,
2013-02-28 17:44:00,29.5,20.9,30.25,NE,46,2.0,5.0,70,0.00,,,0.00,Wunderground v.1.15,2013-02-28 23:44:00,
2013-02-28 17:49:00,29.4,20.5,30.25,NE,53,2.0,5.0,69,0.00,,,0.00,Wunderground v.1.15,2013-02-28 23:49:00,
2013-02-28 17:54:00,29.4,20.8,30.25,NNE,17,0.0,5.0,70,0.00,,,0.00,Wunderground v.1.15,2013-02-28 23:54:00,
2013-02-28 18:00:00,29.3,21.1,30.25,NNE,13,0.0,6.0,71,0.00,,,0.00,Wunderground v.1.15,2013-03-01 00:00:00,
2013-02-28 18:05:00,29.2,20.6,30.25,ENE,62,0.0,6.0,70,0.00,,,0.00,Wunderground v.1.15,2013-03-01 00:05:00,
2013-02-28 18:10:00,29.1,20.9,30.25,North,9,0.0,6.0,71,0.00,,,0.00,Wunderground v.1.15,2013-03-01 00:10:00,
2013-02-28 18:15:00,29.0,21.4,30.25,North,11,0.0,6.0,73,0.00,,,0.00,Wunderground v.1.15,2013-03-01 00:15:00,
2013-02-28 18:20:00,28.9,21.0,30.25,NE,35,0.0,7.0,72,0.00,,,0.00,Wunderground v.1.15,2013-03-01 00:20:00,
2013-02-28 18:25:00,28.7,20.5,30.25,NNE,17,4.0,6.0,71,0.00,,,0.00,Wunderground v.1.15,2013-03-01 00:25:00,
2013-02-28 18:30:00,28.5,20.3,30.26,NNE,32,0.0,3.0,71,0.00,,,0.00,Wunderground v.1.15,2013-03-01 00:30:00,
2013-02-28 18:35:00,28.3,20.4,30.26,NE,40,3.0,6.0,72,0.00,,,0.00,Wunderground v.1.15,2013-03-01 00:35:00,
2013-02-28 18:40:00,28.1,20.2,30.26,NNE,29,1.0,3.0,72,0.00,,,0.00,Wunderground v.1.15,2013-03-01 00:40:00,
2013-02-28 18:45:00,27.9,20.4,30.26,NE,42,3.0,5.0,73,0.00,,,0.00,Wunderground v.1.15,2013-03-01 00:45:00,
2013-02-28 18:50:00,27.6,20.1,30.26,NNE,19,0.0,1.0,73,0.00,,,0.00,Wunderground v.1.15,2013-03-01 00:50:00,
2013-02-28 18:55:00,27.5,20.0,30.26,NNE,26,5.0,5.0,73,0.00,,,0.00,Wunderground v.1.15,2013-03-01 00:55:00,
2013-02-28 19:01:00,27.2,20.0,30.26,NNE,26,0.0,1.0,74,0.00,,,0.00,Wunderground v.1.15,2013-03-01 01:01:00,
2013-02-28 19:06:00,26.9,20.0,30.26,NE,43,0.0,5.0,75,0.00,,,0.00,Wunderground v.1.15,2013-03-01 01:06:00,
2013-02-28 19:11:00,26.7,19.5,30.27,NE,43,0.0,2.0,74,0.00,,,0.00,Wunderground v.1.15,2013-03-01 01:11:00,
2013-02-28 19:16:00,26.5,19.6,30.27,NE,43,0.0,4.0,75,0.00,,,0.00,Wunderground v.1.15,2013-03-01 01:16:00,
2013-02-28 19:21:00,26.3,19.5,30.27,NE,43,0.0,1.0,75,0.00,,,0.00,Wunderground v.1.15,2013-03-01 01:21:00,
2013-02-28 19:26:00,26.1,19.3,30.26,NE,43,0.0,4.0,75,0.00,,,0.00,Wunderground v.1.15,2013-03-01 01:26:00,
2013-02-28 19:32:00,25.9,19.4,30.26,NE,43,0.0,1.0,76,0.00,,,0.00,Wunderground v.1.15,2013-03-01 01:32:00,
2013-02-28 19:37:00,25.7,19.2,30.27,NE,43,1.0,1.0,76,0.00,,,0.00,Wunderground v.1.15,2013-03-01 01:37:00,
2013-02-28 19:42:00,25.5,19.0,30.27,NE,43,0.0,1.0,76,0.00,,,0.00,Wunderground v.1.15,2013-03-01 01:42:00,
2013-02-28 19:47:00,25.3,18.8,30.27,NE,43,0.0,1.0,76,0.00,,,0.00,Wunderground v.1.15,2013-03-01 01:47:00,
2013-02-28 19:52:00,25.1,18.6,30.27,NE,43,0.0,1.0,76,0.00,,,0.00,Wunderground v.1.15,2013-03-01 01:52:00,
2013-02-28 19:57:00,24.9,18.7,30.27,NE,43,0.0,1.0,77,0.00,,,0.00,Wunderground v.1.15,2013-03-01 01:57:00,
2013-02-28 20:02:00,24.7,18.5,30.27,NE,43,0.0,0.0,77,0.00,,,0.00,Wunderground v.1.15,2013-03-01 02:02:00,
2013-02-28 20:07:00,24.5,18.3,30.27,NE,43,0.0,0.0,77,0.00,,,0.00,Wunderground v.1.15,2013-03-01 02:07:00,
2013-02-28 20:12:00,24.3,18.4,30.27,NE,43,0.0,0.0,78,0.00,,,0.00,Wunderground v.1.15,2013-03-01 02:12:00,
2013-02-28 20:17:00,24.1,18.2,30.27,NE,43,0.0,0.0,78,0.00,,,0.00,Wunderground v.1.15,2013-03-01 02:17:00,
2013-02-28 20:23:00,23.8,18.2,30.27,NE,43,0.0,0.0,79,0.00,,,0.00,Wunderground v.1.15,2013-03-01 02:23:00,
2013-02-28 20:28:00,23.6,18.0,30.27,NE,43,0.0,0.0,79,0.00,,,0.00,Wunderground v.1.15,2013-03-01 02:28:00,
2013-02-28 20:33:00,23.4,17.8,30.27,NE,43,0.0,0.0,79,0.00,,,0.00,Wunderground v.1.15,2013-03-01 02:33:00,
2013-02-28 20:38:00,23.1,17.6,30.27,NE,43,0.0,0.0,79,0.00,,,0.00,Wunderground v.1.15,2013-03-01 02:38:00,
2013-02-28 20:43:00,22.9,17.7,30.27,NE,43,0.0,0.0,80,0.00,,,0.00,Wunderground v.1.15,2013-03-01 02:43:00,
2013-02-28 20:48:00,22.6,17.4,30.28,NE,43,0.0,0.0,80,0.00,,,0.00,Wunderground v.1.15,2013-03-01 02:48:00,
2013-02-28 20:53:00,22.4,17.2,30.28,NE,43,0.0,0.0,80,0.00,,,0.00,Wunderground v.1.15,2013-03-01 02:53:00,
2013-02-28 20:58:00,22.1,17.2,30.28,North,355,0.0,5.0,81,0.00,,,0.00,Wunderground v.1.15,2013-03-01 02:58:00,
2013-02-28 21:04:00,21.9,17.0,30.28,North,360,0.0,2.0,81,0.00,,,0.00,Wunderground v.1.15,2013-03-01 03:04:00,
2013-02-28 21:09:00,21.8,16.9,30.28,North,360,0.0,2.0,81,0.00,,,0.00,Wunderground v.1.15,2013-03-01 03:09:00,
2013-02-28 21:14:00,21.7,16.8,30.28,North,360,0.0,0.0,81,0.00,,,0.00,Wunderground v.1.15,2013-03-01 03:14:00,
2013-02-28 21:19:00,21.6,17.0,30.28,North,360,0.0,0.0,82,0.00,,,0.00,Wunderground v.1.15,2013-03-01 03:19:00,
2013-02-28 21:24:00,21.5,16.9,30.28,North,360,2.0,2.0,82,0.00,,,0.00,Wunderground v.1.15,2013-03-01 03:24:00,
2013-02-28 21:29:00,21.4,16.8,30.28,North,9,1.0,4.0,82,0.00,,,0.00,Wunderground v.1.15,2013-03-01 03:29:00,
2013-02-28 21:34:00,21.3,16.9,30.28,North,5,1.0,4.0,83,0.00,,,0.00,Wunderground v.1.15,2013-03-01 03:34:00,
2013-02-28 21:39:00,21.3,16.9,30.28,North,5,1.0,4.0,83,0.00,,,0.00,Wunderground v.1.15,2013-03-01 03:39:00,
2013-02-28 21:44:00,21.3,16.7,30.29,North,360,0.0,3.0,82,0.00,,,0.00,Wunderground v.1.15,2013-03-01 03:44:00,
2013-02-28 21:49:00,21.2,16.6,30.28,North,360,2.0,3.0,82,0.00,,,0.00,Wunderground v.1.15,2013-03-01 03:49:00,
2013-02-28 21:55:00,21.2,16.6,30.28,NNE,20,4.0,4.0,82,0.00,,,0.00,Wunderground v.1.15,2013-03-01 03:55:00,
2013-02-28 22:00:00,21.2,16.6,30.28,NNE,18,0.0,4.0,82,0.00,,,0.00,Wunderground v.1.15,2013-03-01 04:00:00,
2013-02-28 22:05:00,21.2,16.6,30.28,NNE,17,3.0,4.0,82,0.00,,,0.00,Wunderground v.1.15,2013-03-01 04:05:00,
2013-02-28 22:10:00,21.2,16.3,30.29,NNE,17,2.0,2.0,81,0.00,,,0.00,Wunderground v.1.15,2013-03-01 04:10:00,
2013-02-28 22:15:00,21.2,16.3,30.29,NNE,17,0.0,4.0,81,0.00,,,0.00,Wunderground v.1.15,2013-03-01 04:15:00,
2013-02-28 22:20:00,21.1,16.2,30.28,NNE,17,0.0,1.0,81,0.00,,,0.00,Wunderground v.1.15,2013-03-01 04:20:00,
2013-02-28 22:26:00,21.0,16.1,30.29,NNE,18,0.0,3.0,81,0.00,,,0.00,Wunderground v.1.15,2013-03-01 04:26:00,
2013-02-28 22:31:00,21.1,16.2,30.28,NE,37,2.0,5.0,81,0.00,,,0.00,Wunderground v.1.15,2013-03-01 04:31:00,
2013-02-28 22:36:00,21.3,16.4,30.29,NE,34,3.0,7.0,81,0.00,,,0.00,Wunderground v.1.15,2013-03-01 04:36:00,
2013-02-28 22:41:00,21.6,16.4,30.29,NNE,30,0.0,2.0,80,0.00,,,0.00,Wunderground v.1.15,2013-03-01 04:41:00,
2013-02-28 22:46:00,21.6,16.4,30.29,NE,43,0.0,4.0,80,0.00,,,0.00,Wunderground v.1.15,2013-03-01 04:46:00,
2013-02-28 22:51:00,21.6,16.4,30.29,ENE,65,0.0,3.0,80,0.00,,,0.00,Wunderground v.1.15,2013-03-01 04:51:00,
2013-02-28 22:56:00,21.6,16.4,30.29,ENE,77,1.0,4.0,80,0.00,,,0.00,Wunderground v.1.15,2013-03-01 04:56:00,
2013-02-28 23:00:00,21.6,16.4,30.29,ENE,59,2.0,4.0,80,0.00,,,0.00,Wunderground v.1.15,2013-03-01 05:00:00,
2013-02-28 23:01:00,21.6,16.4,30.29,NNE,30,3.0,5.0,80,0.00,,,0.00,Wunderground v.1.15,2013-03-01 05:01:00,
2013-02-28 23:06:00,21.6,16.4,30.29,NNE,30,0.0,5.0,80,0.00,,,0.00,Wunderground v.1.15,2013-03-01 05:06:00,
2013-02-28 23:11:00,21.6,16.4,30.29,NNE,30,0.0,2.0,80,0.00,,,0.00,Wunderground v.1.15,2013-03-01 05:11:00,
2013-02-28 23:16:00,21.6,16.4,30.29,NNE,32,4.0,4.0,80,0.00,,,0.00,Wunderground v.1.15,2013-03-01 05:16:00,
2013-02-28 23:21:00,21.7,16.5,30.29,ENE,70,2.0,9.0,80,0.00,,,0.00,Wunderground v.1.15,2013-03-01 05:21:00,
2013-02-28 23:26:00,21.9,17.0,30.29,ENE,59,4.0,10.0,81,0.00,,,0.00,Wunderground v.1.15,2013-03-01 05:26:00,
2013-02-28 23:31:00,22.1,17.2,30.29,ENE,65,3.0,10.0,81,0.00,,,0.00,Wunderground v.1.15,2013-03-01 05:31:00,
2013-02-28 23:36:00,22.4,17.5,30.29,ENE,57,4.0,10.0,81,0.00,,,0.00,Wunderground v.1.15,2013-03-01 05:36:00,
2013-02-28 23:42:00,22.6,17.6,30.29,ENE,71,1.0,5.0,81,0.00,,,0.00,Wunderground v.1.15,2013-03-01 05:42:00,
2013-02-28 23:47:00,22.8,17.8,30.29,ENE,72,2.0,5.0,81,0.00,,,0.00,Wunderground v.1.15,2013-03-01 05:47:00,
2013-02-28 23:52:00,23.0,17.7,30.29,ENE,65,2.0,8.0,80,0.00,,,0.00,Wunderground v.1.15,2013-03-01 05:52:00,
2013-02-28 23:57:00,23.1,17.8,30.29,ENE,67,4.0,8.0,80,0.00,,,0.00,Wunderground v.1.15,2013-03-01 05:57:00,